Regional Weather Roundup
Issued by NWS

Home | Current Version | Previous Version | Graphics & Text | Print | Product List | Glossary On
Versions: 1 2 3 4 5 6 7 8 9 10 11 12 13 14 15 16 17 18 19 20 21 22 23 24 25 26 27 28 29 30 31 32 33 34 35 36 37 38 39 40 41 42 43 44 45 46 47 48 49 50
000
ASUS43 KIND 291609
RWRIN

WEATHER ROUNDUP FOR INDIANA
NATIONAL WEATHER SERVICE INDIANAPOLIS IN
1200 PM EDT THU SEP 29 2016

NOTE: "FAIR" INDICATES FEW OR NO CLOUDS BELOW 12,000 FEET WITH NO
SIGNIFICANT WEATHER AND/OR OBSTRUCTIONS TO VISIBILITY.

* - STATION DOES NOT REPORT WEATHER SUCH AS PRECIPITATION OR FOG.

+ - STATION NOT QUALITY CONTROLLED BY THE NATIONAL WEATHER SERVICE.
    USE DATA WITH CAUTION...ESPECIALLY DEWPOINT AND RELATIVE
    HUMIDITY OBSERVATIONS.

INZ001>003-010>013-019-020-291700-
NORTHWEST INDIANA

CITY           SKY/WX    TMP DP  RH WIND       PRES   REMARKS
GARY /AIRPORT/ CLOUDY    63  61  94 NE17G29   30.15S
KNOX *+        CLOUDY    61  43  51 NE8       30.12S
LA PORTE +     CLOUDY    63  63 100 NE10      30.14S
MICHIGAN CITY+ CLOUDY    61  61 100 CALM      30.15R
MONTICELLO +   CLOUDY    63  52  68 NE6       30.10S
RENSSELAER +   CLOUDY    63  55  77 NE7       30.13R
VALPARAISO     CLOUDY    61  57  87 N6        30.14R

$$

LMZ046-743>745-291700-
SOUTHERN LAKE MICHIGAN

STATION/POSITION TIME  TEMP    WIND        PRES    WAVE
                       AIR SEA DIR/SP/G            HT
                 (UTC) (F)     (DEG/KT/KT) (MB)    (FT)
BURNS HARBOR     1540   62      40/ 21/ 26 1021.0R
MICHIGAN CITY    1540   60      10/ 21/ 23   N/A
5NW MICH CITY    1600   62 65   30/ 17/ 23   N/A     7

$$

INZ004-005-014>016-021>024-291700-
NORTH CENTRAL INDIANA

CITY           SKY/WX    TMP DP  RH WIND       PRES   REMARKS
ELKHART        CLOUDY   N/A N/A N/A NE12      30.13
GOSHEN         LGT RAIN  63  58  83 NE7       30.12S
LOGANSPORT +   CLOUDY    61  54  77 E7        30.12R
ROCHESTER +    PTSUNNY   64  59  82 E6        30.12R
SOUTH BEND     CLOUDY    60  58  92 NE8       30.14R
WARSAW +       PTSUNNY   61  50  67 E7        30.12R

$$

INZ006>009-017-018-025>027-291700-
NORTHEAST INDIANA

CITY           SKY/WX    TMP DP  RH WIND       PRES   REMARKS
ANGOLA *+        N/A     63  54  72 SE8       30.12R
AUBURN +       PTSUNNY   63  55  77 E7        30.13R
FORT WAYNE     PTSUNNY   62  55  77 E12       30.12R
HUNTINGTON +   CLOUDY    62  57  83 E6        30.12R
KENDALLVILLE + CLOUDY    63  58  82 SE9       30.13R

$$

INZ028-029-035-036-043>045-051>053-291700-
WEST CENTRAL INDIANA

CITY           SKY/WX    TMP DP  RH WIND       PRES   REMARKS
CRAWFORDSVL +  CLOUDY    57  57  97 N5        30.11R
GREENCASTLE +  CLOUDY    59  54  82 NE7       30.10R
LAFAYETTE      CLOUDY    61  56  83 NE8       30.10F
TERRE HAUTE    PTSUNNY   62  52  69 N7        30.10R

$$

INZ030>032-037>040-046>048-054>057-064-065-291700-
CENTRAL INDIANA

CITY           SKY/WX    TMP DP  RH WIND       PRES   REMARKS
ANDERSON       CLOUDY    59  55  88 E6        30.10R
COLUMBUS       CLOUDY    59  55  88 NE6       30.09R
FISHERS *+     CLOUDY    59  57  94 E3        30.10R
FRANKFORT +    CLOUDY    64  55  72 E9        30.12R
GREENWOOD *+   CLOUDY    61  55  82 E3        30.10R
INDIANAPOLIS   CLOUDY    59  52  77 E9        30.09S
-EAGLE CREEK   CLOUDY    60  53  77 VRB7      30.09R
KOKOMO *+      CLOUDY    61  54  77 E8        30.11S
MARION +       MOSUNNY   62  51  67 E10       30.11S
MT COMFORT *+  CLOUDY    57  54  88 CALM      30.09F
SHELBYVILLE    CLOUDY    60  53  77 VRB3      30.08F
ZIONSVILLE +   CLOUDY    60  53  79 E7        30.10S

$$

INZ033-034-041-042-049-050-058-059-291700-
EAST CENTRAL INDIANA

CITY           SKY/WX    TMP DP  RH WIND       PRES   REMARKS
MUNCIE         CLOUDY    61  54  77 E8        30.10S

$$

INZ060-061-067>069-081>083-085>088-291700-
SOUTHWEST INDIANA

CITY           SKY/WX    TMP DP  RH WIND       PRES   REMARKS
EVANSVILLE     CLOUDY    58  54  86 NE5       30.10R
HUNTINGBURG *+   N/A     57  52  82 NE5       30.10S
WASHINGTON +   PTSUNNY   60  55  85 MISG      30.09R

$$

INZ062-063-066-070>080-084-089>092-291700-
SOUTH CENTRAL AND SOUTHEAST INDIANA

CITY           SKY/WX    TMP DP  RH WIND       PRES   REMARKS
BLOOMINGTON    CLOUDY    59  51  75 N5        30.09R
MADISON *+     PTSUNNY   59  52  77 CALM      30.09S
NORTH VERNON + CLOUDY   N/A N/A N/A CALM      30.09R
SEYMOUR +      CLOUDY    61  52  72 CALM      30.08S

$$





USA.gov is the U.S. government's official web portal to all federal, state and local government web resources and services.